Погода в Уюке

Погода в Уюке : погода сейчас, прогноз погоды и архив. Всё, что Вы хотите узнать о погоде в Уюке!

Поиск расширенной информации на нашем сайте:

Другие новости

Новости СМИ2

Главная страница сайта

Новости сайта

03.07.2017

Напоминаем, что на нашем специализированном сайте Метеоцентр.Азия вы можете получить высокодетализированные автоматические прогнозы погоды по пунктам России, СНГ и мира в авиационном формате (включающие направление и скорость ветра, видимость, явления погоды, количество и форму облачности, нижнюю и верхнюю границу облачности).

Рекомендуем: мольберт детский

Погода в Уюке - сегодня

Время (UTC), дата Ветер
(°,м/с) 
Видим.   Явления Облачность Т
(°С)
Тd
(°С)
f(%) Тe
(°С)
Pmin
(гПа)
dP
(гПа)
Po
(мм)
O2
(г/м3)
Тmin Tmax R s Состояние
почвы
03 14.02.18 320 (СЗ) 20000 м    10/10 1000 м 
[Sc]
+0.3 -3.4 76 -1  1019.5  730  294      равномерный
сухой снег
100% 
09 14.02.18 320 (СЗ) 4000 м  в посл. час туман  10/10 600 м 
[Sc]
+0.2 -4.6 70 -1  1019.3  -1.2  730  294           
15 14.02.18 050 (СВ) 20000 м    10/10 1000 м 
[Sc]
-0.5 -5 72 1020.6  0.6  731  295    +0.2       
18 14.02.18 тихо ()   20000 м    10/10 1000 м 
[Sc]
-1.2 -5.5 73 -1  1021.7  0.8  731  296    +0.2       
21 14.02.18 тихо ()   20000 м    10/10 1000 м 
[Sc]
-2 -6.1 73 -2  1022.2  0.3  731  298           
00 15.02.18 050 (СВ) 20000 м    10/10 1000 м 
[Sc]
-4.3 -8.1 75 -4  1024.5  1.9  733  301           
06 15.02.18 290 (З) 20000 м    9/0 средняя, верхняя 
[Ac lent|Ci sp]
-6 -12.8 59 -7  1031.3  3.2  737  305  -6.3         
09 15.02.18 280 (З) 20000 м    8/0 средняя, верхняя 
[Ac lent|Ci sp]
-3.8 -13.1 48 -5  1033.3  2.3  739  303           
12 15.02.18 270 (З) 20000 м    9/0 средняя 
[Ac und]
-3.5 -12.5 50 -3  1035.4  2.2  741  303           
15 15.02.18 260 (З) 20000 м    10/10 1000 м 
[Sc]
-4.1 -5.7 89 -4  1037.8  2.1  742  304    -3.5       
18 15.02.18 тихо ()   20000 м    10/10 1000 м 
[Sc]
-4.2 -9.2 68 -4  1038.5  0.7  743  305    -3.5       
21 15.02.18 тихо ()   20000 м    10/10 1000 м 
[Sc]
-4.4 -9.1 70 -4  1038.8  0.3  743  305           
00 16.02.18 050 (СВ) 20000 м    10/10 1000 м 
[Sc]
-5.9 -9.8 74 -6  1039.8  0.5  744  307           
06 16.02.18 090 (В) 20000 м    9/0 средняя, верхняя 
[Ac trans|Ci sp]
-4.9 -11.2 61 -6  1040.7  0.4  744  306  -6.6         
09 16.02.18 120 (ЮВ) 20000 м    10/0 средняя 
[Ac As]
-3.2 -11 55 -3  1040  -0.3  744  304           
12 16.02.18 090 (В) 20000 м    10/0 средняя 
[Ac As]
-2.9 -10 58 -2  1039.5  -0.5  744  304           
15 16.02.18 тихо ()   20000 м    10/10 1000 м 
[Sc]
-3.9 -9.3 66 -4  1039.9  0.2  744  305    -2.9       
18 16.02.18 тихо ()   20000 м    6/0 средняя, верхняя 
[Ac lent|Ci sp]
-5.4 -10.5 67 -5  1039.6  -0.5  744  307    -2.9       
21 16.02.18 тихо ()   20000 м    10/10 1000 м 
[Sc]
-6.5 -11.1 70 -7  1039.5  -0.3  743  308           
00 17.02.18 тихо ()   20000 м    10/10 1000 м 
[Sc]
-6.7 -10.9 72 -7  1039  -0.4  743  308           
06 17.02.18 тихо ()   20000 м    8/0 средняя 
[Ac lent]
-2.5 -8.9 61 -3  1038.2  -0.1  743  303  -6.8         
09 17.02.18 тихо ()   20000 м    10/0 средняя 
[Ac As]
-1.7 -8.2 61 -2  1037.1  -0.9  742  302           
12 17.02.18 180 (Ю) 20000 м    10/10 1000 м 
[Sc]
-1.9 -9.4 56 -1  1036.7  -0.6  742  302           
15 17.02.18 090 (В) 20000 м    9/0 средняя, верхняя 
[Ac lent|Ci sp]
-4 -10.3 62 -4  1036.7  -0.2  742  304    -1.7       
18 17.02.18 270 (З) 20000 м    8/0 средняя, верхняя 
[Ac trans|Ci sp]
-7.7 -12.7 67 -7  1037  -0.5  741  309    -1.7       
Время (UTC), дата Ветер
(°,м/с) 
Видим.   Явления Облачность Т
(°С)
Тd
(°С)
f(%) Тe
(°С)
Pmin
(гПа)
dP
(гПа)
Po
(мм)
O2
(г/м3)
Тmin Tmax R s Состояние
почвы

Для получения пояснительной информации подведите курсор к названию столбца.

ПОГОДА в Уюке - архив

Всё, что Вы хотите узнать о погоде в Уюке - удобно и подробно!

Выберите нужную дату (начиная с 1 января 2015* года) и нажмите кнопку "Найти".
Будут отображены архивные сводки погоды по пункту Уюк, начиная с указанной даты.


Отображать данные в формате CSV (для использования в таблицах Excel)


Внимание! Наш архив погоды предназначен исключительно для личного некоммерческого использования в познавательных целях. Если Вам необходимы официальные справки о состоянии погоды (для производственных, юридических, коммерческих и т.п. целей), обращайтесь в органы Росгидромета.

*Примечание: данная дата относится к архиву по метеостанциям СССР (Россия, СНГ, Балтия).
Архив по метеостанциям Зарубежной Европы и Азии (кроме Китая) хранится 10 дней, по другим регионам земного шара (Китай, Африка, Америка, Австралия, Океания) - 1 день.

Уюк - район местоположения метеостанции


Название, широта, долгота, высота метеостанции:
Уюк 43.8°ш. 70.9°д. 366 м над ур. моря [Казахстан]

Дополнительная информация

В oтличие oт бoльшинства пoгoдных сайтoв мы публикуем пoдрoбную метеoинфoрмацию в детальнoм прoфессиoнальнoм фoрмате.

Характеристики температуры и влажнoсти вoздуха измеряются на высoте 2 м в тени вдали oт зданий и деревьев.
Скoрoсть ветра измеряется на высoте 10 м (на урoвне рoста челoвека скoрoсть ветра ниже в 1.5-2 раза). Если метеoстанция нахoдится в гoрoде или в лесу, тo скoрoсть ветра занижена на 2-4 м/с пo сравнению с oткрытым местoм. Скoрoсть ветра над акватoриями крупных рек и oзёр, а также на вершинах хoлмoв на 2-5 м/с выше, чем в oбычных услoвиях.
Атмoсфернoе давление в разных тoчках местнoсти мoжет значительнo oтличаться oт давления на метеoстанции, в зависимoсти oт услoвий рельефа (при пoдъёме на 10 м давление пoнижается примернo на 1 мм рт.ст.).